Flag for U.S.A. Weather past 2 weeks in Pembroke Pines, Florida, U.S.A.

Now
90 °F

Passing clouds.


Feels Like: 100 °F
Forecast: 77 / 89 °F
Wind: 8 mph from South

Location: North Perry Airport

Current Time: Aug 31, 2015 at 6:50:54 PM

Latest Report: Aug 31, 2015 at 5:53 PM


Visibility: 10 mi

Pressure: 30.02 "Hg

Humidity: 61%

Dew point: 75 °F

Location of Pembroke PinesLocation

Historic Weather in Pembroke Pines — Graph

°F

Pembroke Pines temperature yesterday

Maximum temperature yesterday: 85 °F (at 11:53 AM)
Minimum temperature yesterday: 75 °F (at 3:59 AM)
Average temperature yesterday: 80 °F

Past Weeks' High & Low Weather Summary

 TemperatureHumidityPressure
High94 °F (Aug 22, 1:53 PM)96% (Aug 27, 3:53 AM)30.10 "Hg (Aug 27, 3:53 AM)
Low75 °F (Aug 30, 3:59 AM)50% (Aug 21, 5:53 PM)29.89 "Hg (Aug 24, 5:53 PM)
Average84 °F75%29.99 "Hg
* Reported Aug 16 4:53 PM — Aug 31 4:53 PM, Pembroke Pines, Weather by CustomWeather, © 2015

Note: Actual official high and low records may vary slightly from our data, if they occured in-between our weather recording intervals... More about our weather records

Advertising

Pembroke Pines weather history for previous 24 hours

 ConditionsComfort  
Time TempWeatherWind HumidityBarometerVisibility
4:53 PM
Mon, Aug 31
90 °FSunny.12 mph61%30.02 "Hg10 mi
3:53 PM92 °FPassing clouds.13 mph58%30.02 "Hg10 mi
2:53 PM91 °FPassing clouds.14 mph61%30.04 "Hg10 mi
1:53 PM92 °FPassing clouds.13 mph58%30.05 "Hg10 mi
12:53 PM91 °FScattered clouds.15 mph57%30.06 "Hg10 mi
11:53 AM89 °FPassing clouds.12 mph63%30.07 "Hg10 mi
10:53 AM88 °FSunny.13 mph65%30.06 "Hg10 mi
9:53 AM85 °FPartly sunny.13 mph72%30.04 "Hg10 mi
8:53 AM84 °FSunny.14 mph77%30.03 "Hg10 mi
7:53 AM79 °FPassing clouds.No wind84%30.03 "Hg10 mi
6:53 AM78 °FPassing clouds.3 mph84%30.01 "Hg10 mi
5:53 AM76 °FClear.No wind94%30.00 "Hg10 mi
4:53 AM76 °FClear.No wind91%30.00 "Hg10 mi
3:53 AM77 °FClear.No wind90%30.00 "Hg10 mi
2:53 AM77 °FClear.3 mph90%30.02 "Hg10 mi
1:53 AM77 °FClear.5 mph90%30.03 "Hg10 mi
12:53 AM79 °FClear.No wind84%30.04 "Hg10 mi
11:53 PM
Sun, Aug 30
80 °FClear.No wind81%30.04 "Hg10 mi
10:53 PM80 °FClear.3 mph81%30.03 "Hg10 mi
9:53 PM80 °FClear.5 mph79%30.03 "Hg10 mi
8:53 PM80 °FClear.6 mph81%30.01 "Hg10 mi
7:53 PM81 °FSunny.5 mph79%30.00 "Hg10 mi
6:53 PM81 °FSunny.7 mph79%29.99 "Hg10 mi
Weather by CustomWeather, © 2015

See weather overviewHow to use our weather pages